Location: Kergonan
(48.2337°N, 4.5518°W)
Time: 01:41:50
(UTC+00:00)

Cosmos 1656 - Pass Details

Date: 18 January 2020
Orbit: 797 x 850 km, 71.1° (Epoch: 22 February)

Event Time Altitude Azimuth Distance (km) Brightness Sun altitude
Exits shadow 06:37:17 17° 262° (W) 1,929 5.0 -13.8°
Maximum altitude 06:40:32 30° 312° (NW) 1,420 4.4 -13.3°
Drops below altitude 10° 06:45:19 10° 12° (NNE) 2,404 6.0 -12.5°
Sets 06:48:04 0° 24° (NNE) 3,348 6.9 -12.1°
